Showing default

QIANFAN-60, 62790

Orbit data source: Space-Track

QIANFAN-60, 62790 is a Chinese payload satellite in LEO that was launched on Thu, 23 Jan 2025 UTC via a CHANG ZHENG 6A launch vehicle from the Taiyaun Space Center, China (TSC). Payload-class satellites include a variety of spacecraft equipped with specific instruments for various scientific and technological missions. These include communications satellites like Starlink; space stations such as the ISS; scientific satellites like the Hubble; Earth observation satellites from companies like Planet Labs, Umbra, and HawkEye 360; GPS; miniature CubeSats for education and research; and military/defense satellites.

Loading next visibility...
Identifier
62790, 2025-016F
Orbit
LEO
Country
Flag of CNCN / PRC
Related business
Manufacturer
SECM
Mission
Operational Commercial Communications
Bus & Motor
QIANFAN, Unknown motor
Mass
267 kg wet, ~267 kg dry
Launch date (UTC)
2025-01-23 (1 year ago)
Launch vehicle
CHANG ZHENG 6A
Launch site
Taiyaun Space Center, China (TSC)
Object type
Payload
Rocket body
Debris
Shape & HBR
Box + 1 Pan, 1.2 m
Radar Cross Section
13.200 m², Large (>1 m²)

Expand to show TLE details & history
Last TLE update: 7 hours ago

TLE from 7 hours ago
0 QIANFAN-60
1 62790U 25016F   26035.77257823  .00000102  00000-0  13977-3 0  9998
2 62790  88.9717  97.4854 0016212 180.2064 179.9083 13.50989664 54520
Epoch: 2026-02-04T18:32Z
TLE epoch observation values (Epoch: 2026-02-04T18:32:30.759Z)
Latitude
-0.00002°
Longitude
44.42288°
Altitude
1,083.648 km
Speed
7.304 km/s
True Right ascension
06h 29m 56s
True Declination
0° 00' 00"
Sunlit
Object was in full shadow at epoch
Visualization orbit readout
Latitude
Unknown
Longitude
Unknown
Altitude
Unknown
Speed
Unknown
Apparent Right ascension
Unknown
Apparent Declination
Unknown
Sunlit
N/A
Visualization observer readout
Local Sidereal Time
03:18:45
Azimuth
Unknown
Elevation
Unknown
Doppler factor
Unknown
Orbital elements
Apogee altitude
1,077.739 km
Perigee altitude
1,053.603 km
Semi-major axis
7,443.808 km
Eccentricity
0.00162
Inclination
88.9717°
RAAN
97.4854°
Arg. of periapsis
180.2064°
True anomaly
179.9086°
Mean anomaly
179.9083°
Eccentric anomaly
179.90845°
Mean motion
3.37948 °/min
Orbital period
106.53 mins
BSTAR
0.00013977
Loading maneuver chart data...
Computing Atmospheric mass density...
Loading historical data...
Loading historical data...
Loading historical data...
Loading historical data...
Loading historical data...
Loading historical data...
Loading historical data...

Documentation

Showing up to 5 results
|